Moffett NAS, CA

4:22 AM PDT on June 19, 2018 (GMT -0700)
Moffett Federal Air Field

Weather History for KNUQ - June, 2018

Change the Weather History Date:

Thursday, June 14, 2018

  Actual Average Record
Temperature  
Mean Temperature 66 °F 66 °F  
Max Temperature 75 °F 76 °F 106 °F (2000)
Min Temperature 57 °F 56 °F 48 °F (1959)
Degree Days  
Heating Degree Days 0    
Month to date heating degree days 17  
Since 1 June heating degree days 17  
Since 1 July heating degree days 2031  
Cooling Degree Days 1    
Month to date cooling degree days 25  
Year to date cooling degree days 43  
Since 1 June cooling degree days 25  
Growing Degree Days 15 (Base 50)    
Moisture  
Dew Point 53 °F    
Average Humidity 68    
Maximum Humidity 86    
Minimum Humidity 49    
Precipitation  
Precipitation 0.00 in 0.00 in 0.00 in (2018)
Month to date precipitation 0.00 0.07  
Year to date precipitation 6.25 9.60  
Sea Level Pressure  
Sea Level Pressure 29.81 in    
Wind  
Wind Speed 7 mph (North)    
Max Wind Speed 21 mph    
Max Gust Speed 24 mph    
Visibility 10 miles    
Events      
T = Trace of Precipitation, MM = Missing Value Source: NWS Daily Summary

Daily Weather History Graph

Daily Weather History Graph

Search for Another Location

Airport or City:

Astronomy

Jun. 14, 2018 Rise Set
Actual Time 5:46 AM PDT 8:30 PM PDT
Civil Twilight 5:15 AM PDT 9:01 PM PDT
Nautical Twilight 4:37 AM PDT 9:40 PM PDT
Astronomical Twilight 3:53 AM PDT 10:24 PM PDT
Moon 6:48 AM PDT (6/14) 9:37 PM PDT (6/14)
Length of Visible Light 15h 45m
Length of Day
14h 43m
New Moon, 1% of the Moon is Illuminated
Jun 14
New Moon
Jun 20
First Quarter
Jun 27
Full
Jul 6
Last Quarter
Jul 12
New

Hourly Weather History & Observations

Time (PDT) Temp. Dew Point Humidity Pressure Visibility Wind Dir Wind Speed Gust Speed Precip Events Conditions
12:56 AM 57.9 °F 52.0 °F 81% 29.84 in 10.0 mi NE 4.6 mph - N/A   Clear
1:56 AM 57.0 °F 52.0 °F 83% 29.84 in 10.0 mi East 3.5 mph - N/A   Clear
2:56 AM 57.9 °F 52.0 °F 81% 29.83 in 10.0 mi SSE 3.5 mph - N/A   Clear
3:56 AM 57.9 °F 52.0 °F 81% 29.83 in 10.0 mi Calm Calm - N/A   Clear
4:56 AM 57.9 °F 53.1 °F 84% 29.83 in 10.0 mi Calm Calm - N/A   Clear
5:56 AM 57.9 °F 52.0 °F 81% 29.83 in 10.0 mi Calm Calm - N/A   Clear
6:56 AM 59.0 °F 52.0 °F 78% 29.83 in 10.0 mi Calm Calm - N/A   Clear
7:56 AM 61.0 °F 51.1 °F 70% 29.84 in 10.0 mi NE 4.6 mph - N/A   Clear
8:56 AM 63.0 °F 52.0 °F 67% 29.84 in 10.0 mi NNE 4.6 mph - N/A   Clear
9:56 AM 66.0 °F 52.0 °F 60% 29.83 in 10.0 mi North 4.6 mph - N/A   Clear
10:56 AM 70.0 °F 53.1 °F 55% 29.83 in 10.0 mi Calm Calm - N/A   Clear
11:56 AM 72.0 °F 54.0 °F 53% 29.82 in 10.0 mi North 9.2 mph - N/A   Clear
12:56 PM 73.9 °F 55.9 °F 53% 29.81 in 10.0 mi North 13.8 mph - N/A   Clear
1:56 PM 73.9 °F 54.0 °F 50% 29.80 in 10.0 mi North 16.1 mph - N/A   Clear
2:56 PM 73.9 °F 54.0 °F 50% 29.79 in 10.0 mi North 16.1 mph - N/A   Clear
3:56 PM 73.0 °F 54.0 °F 51% 29.78 in 10.0 mi NNW 18.4 mph - N/A   Clear
4:56 PM 73.0 °F 53.1 °F 49% 29.76 in 10.0 mi North 10.4 mph - N/A   Clear
5:56 PM 71.1 °F 55.0 °F 57% 29.75 in 10.0 mi NNW 13.8 mph - N/A   Clear
6:56 PM 68.0 °F 53.1 °F 59% 29.75 in 10.0 mi North 15.0 mph - N/A   Clear
7:56 PM 66.0 °F 55.0 °F 68% 29.76 in 10.0 mi North 16.1 mph - N/A   Clear
8:56 PM 63.0 °F 53.1 °F 70% 29.78 in 10.0 mi NNE 8.1 mph - N/A   Clear
9:56 PM 61.0 °F 54.0 °F 78% 29.79 in 10.0 mi North 6.9 mph - N/A   Clear
10:56 PM 59.0 °F 52.0 °F 78% 29.79 in 10.0 mi North 5.8 mph - N/A   Clear
11:56 PM 59.0 °F 53.1 °F 81% 29.78 in 10.0 mi Calm Calm - N/A   Clear